This demonstration page uses our WeatherBlox Daily Observations layout. Learn more.

Left ArrowRight Arrow

Hourly Observations for October 13, 2020

Temp ( °F °C ) Dew Point ( °F °C ) Humidity (%) Winds ( mph kmh ) Pressure ( in mb ) Visibility ( mi km ) Precip ( " mm )
12:15 am 00:15 Clear 59 15.2 27 -2.7 29 29 SW 14 22 29.88 1012 10 16 N/A
12:35 am 00:35 Clear 60 15.6 27 -3 28 28 SW 13 20 29.88 1012 10 16 N/A
12:55 am 00:55 Clear 63 17.1 26 -3.2 25 25 SW 13 20 29.87 1012 10 16 N/A
1:15 am 01:15 Clear 64 17.7 26 -3.3 24 24 WSW 14 22 29.87 1011 10 16 N/A
1:35 am 01:35 Clear 64 17.6 26 -3.4 24 24 WSW 12 19 29.88 1012 10 16 N/A
1:55 am 01:55 Clear 62 16.6 26 -3.3 26 26 W 9 15 29.90 1012 10 16 N/A
2:15 am 02:15 Clear 57 13.9 26 -3.4 30 30 WSW 6 9 29.91 1013 10 16 N/A
2:35 am 02:35 Clear 56 13.2 26 -3.2 32 32 W 5 7 29.91 1013 10 16 N/A
2:55 am 02:55 Clear 54 12 26 -3.5 34 34 W 3 6 29.93 1013 10 16 N/A
3:15 am 03:15 Clear 55 12.5 26 -3.1 34 34 W 6 9 29.94 1014 10 16 N/A
3:35 am 03:35 Clear 52 11.1 26 -3.1 37 37 W 7 11 29.95 1014 10 16 N/A
3:55 am 03:55 Clear 55 12.6 27 -3 34 34 W 9 15 29.95 1014 10 16 N/A
4:15 am 04:15 Clear 54 12.2 26 -3.3 34 34 W 7 11 29.94 1014 10 16 N/A
4:35 am 04:35 Clear 52 11.3 26 -3.1 37 37 WNW 9 15 29.97 1015 10 16 N/A
4:55 am 04:55 Clear 50 10 26 -3.1 40 40 WNW 8 13 29.99 1016 10 16 N/A
5:15 am 05:15 Clear 49 9.6 28 -2.5 43 43 NW 6 9 30.03 1017 10 16 N/A
5:35 am 05:35 Clear 51 10.8 30 -1.2 44 44 NNW 8 13 30.04 1017 10 16 N/A
5:55 am 05:55 Clear 53 11.6 31 -0.6 43 43 NNW 9 15 30.04 1017 10 16 N/A
6:15 am 06:15 Clear 52 11 32 -0.1 47 47 NNW 8 13 30.06 1018 10 16 N/A
6:35 am 06:35 Clear 50 10 32 undefined 50 50 N 7 11 30.08 1019 10 16 N/A
6:55 am 06:55 Clear 48 9.1 33 0.5 55 55 NNW 7 11 30.11 1020 10 16 N/A
7:15 am 07:15 Clear 48 8.7 33 0.7 58 58 NNW 6 9 30.12 1020 10 16 N/A
7:35 am 07:35 Clear 48 8.8 34 1.2 59 59 NNW 7 11 30.13 1020 10 16 N/A
7:55 am 07:55 Sunny 48 8.8 35 1.8 62 62 N 8 13 30.14 1021 10 16 N/A
8:15 am 08:15 Sunny 48 9 36 2.2 63 63 NNW 7 11 30.16 1021 10 16 N/A
8:35 am 08:35 Sunny 49 9.6 37 2.5 62 62 NNW 7 11 30.17 1022 10 16 N/A
8:55 am 08:55 Sunny 51 10.6 37 2.7 58 58 N 7 11 30.17 1022 10 16 N/A
9:15 am 09:15 Sunny 53 11.6 37 2.6 54 54 N 7 11 30.17 1022 10 16 N/A
9:35 am 09:35 Sunny 55 12.6 36 2.4 50 50 N 12 19 30.17 1022 10 16 N/A
9:55 am 09:55 Sunny 57 13.7 34 1.3 43 43 N 14 22 30.17 1022 10 16 N/A
10:15 am 10:15 Sunny 58 14.6 34 1.1 40 40 N 13 20 30.17 1022 10 16 N/A
10:35 am 10:35 Sunny 60 15.6 33 0.6 36 36 N 10 17 30.16 1021 10 16 N/A
10:55 am 10:55 Sunny 61 15.9 32 0.2 35 35 N 7 11 30.17 1022 10 16 N/A
11:15 am 11:15 Sunny 62 16.8 32 -0.1 32 32 N 13 20 30.15 1021 10 16 N/A
11:35 am 11:35 Sunny 64 17.8 31 -0.5 29 29 N 10 17 30.15 1021 10 16 N/A
11:55 am 11:55 Sunny 64 17.9 32 -0.2 30 30 NNE 15 24 30.14 1021 10 16 N/A
12:15 pm 12:15 Sunny 66 18.7 29 -1.5 26 26 NNE 14 22 30.13 1020 10 16 N/A
12:35 pm 12:35 Sunny 67 19.2 30 -1 26 26 NNE 14 22 30.10 1019 10 16 N/A
12:55 pm 12:55 Sunny 67 19.4 29 -1.6 24 24 N 13 20 30.11 1020 7 11 N/A
1:35 pm 13:35 Sunny 68 20 29 -1.5 24 24 NE 7 11 30.09 1019 10 16 N/A
1:55 pm 13:55 Sunny 68 20.1 30 -1.3 24 24 E 6 9 30.09 1019 10 16 N/A
2:15 pm 14:15 Sunny 68 20.2 29 -1.4 23 23 S 3 6 30.08 1018 10 16 N/A
2:35 pm 14:35 Sunny 69 20.7 30 -1.3 23 23 E 6 9 30.07 1018 10 16 N/A
2:55 pm 14:55 Sunny 69 20.7 29 -1.6 22 22 ESE 6 9 30.05 1018 10 16 N/A
3:15 pm 15:15 Sunny 69 20.8 29 -1.8 22 22 E 3 6 30.04 1017 10 16 N/A
3:35 pm 15:35 Sunny 70 21.1 29 -1.6 22 22 E 6 9 30.03 1017 10 16 N/A
3:55 pm 15:55 Sunny 70 21.2 29 -1.6 22 22 ESE 3 6 30.03 1017 10 16 N/A
4:15 pm 16:15 Sunny 71 21.5 29 -1.6 21 21 SSW 3 6 30.01 1016 10 16 N/A
4:35 pm 16:35 Sunny 71 21.5 29 -1.7 21 21 N N/A 30.01 1016 10 16 N/A
4:55 pm 16:55 Sunny 71 21.6 29 -1.5 21 21 S 5 7 29.99 1016 10 16 N/A
5:15 pm 17:15 Sunny 71 21.5 29 -1.5 21 21 SE 8 13 29.97 1015 10 16 N/A
5:35 pm 17:35 Sunny 71 21.5 30 -1.3 22 22 SSE 7 11 29.96 1015 10 16 N/A
5:55 pm 17:55 Sunny 70 21.3 30 -1 23 23 S 7 11 29.96 1014 10 16 N/A
6:15 pm 18:15 Sunny 69 20.7 31 -0.7 24 24 S 6 9 29.95 1014 10 16 N/A
6:35 pm 18:35 Sunny 67 19.7 31 -0.4 26 26 SSE 6 9 29.94 1014 10 16 N/A
6:55 pm 18:55 Sunny 64 17.9 31 -0.6 29 29 SSE 3 6 29.96 1015 10 16 N/A
7:15 pm 19:15 Clear 60 15.5 30 -1 33 33 SE 7 11 29.97 1015 7 11 N/A
7:35 pm 19:35 Clear 58 14.2 30 -1 35 35 SE 8 13 29.97 1015 7 11 N/A
7:55 pm 19:55 Clear 57 13.8 31 -0.7 37 37 SE 8 13 29.97 1015 10 16 N/A
8:15 pm 20:15 Clear 55 13 31 -0.5 40 40 SSE 6 9 29.98 1015 10 16 N/A
8:35 pm 20:35 Clear 56 13.5 31 -0.4 39 39 SSE 7 11 29.96 1015 10 16 N/A
8:55 pm 20:55 Clear 58 14.5 32 undefined 37 37 S 10 17 29.95 1014 10 16 N/A
9:15 pm 21:15 Clear 58 14.2 32 undefined 38 38 S 9 15 29.95 1014 10 16 N/A
9:35 pm 21:35 Clear 57 14 32 0.1 39 39 S 9 15 29.94 1014 10 16 N/A
9:55 pm 21:55 Clear 57 14 32 0.2 39 39 S 9 15 29.93 1013 10 16 N/A
10:15 pm 22:15 Clear 56 13.1 33 0.5 42 42 S 7 11 29.94 1014 10 16 N/A
10:35 pm 22:35 Clear 55 12.7 33 0.7 44 44 S 7 11 29.93 1014 10 16 N/A
10:55 pm 22:55 Clear 54 12 34 1 47 47 S 7 11 29.93 1013 10 16 N/A
11:15 pm 23:15 Clear 54 12 34 1.2 48 48 S 8 13 29.92 1013 10 16 N/A
11:35 pm 23:35 Clear 54 12 35 1.6 49 49 S 8 13 29.91 1013 10 16 N/A
11:55 pm 23:55 Clear 52 11.3 35 1.7 52 52 S 5 7 29.90 1013 10 16 N/A

Powered by AerisWeather